RH
9 9 11 14 19 21 20 16 12 11 11 12 14 27 53 72 71 56 33 24 32 41 58 67 70 86 96 100 100 75 53 51 38 22 20 20 19 19 20 19 17 15 14 15 13 14 17 17 15 15 15 14 13 11 9 7 8 8 8 8 7 7 7 7 7 6 6 6 7 7 7 10 14 16 17 18 20 21 23 24 25 26 26 25 24 25
9 10 13 15 19 21 21 18 14 12 10 11 19 34 52 71 80 66 40 30 34 39 57 72 76 88 98 100 101 82 60 56 47 29 21 22 20 18 19 18 17 16 14 13 12 13 16 16 15 14 12 12 11 10 10 8 8 8 8 8 8 8 8 8 7 7 7 7 7 8 8 11 15 17 18 18 20 21 21 23 24 24 25 25 25 26
11 12 13 14 17 20 22 20 15 15 12 11 29 50 61 74 82 73 53 40 39 47 62 75 82 94 99 99 101 86 66 61 53 36 24 22 22 21 20 18 16 15 13 11 10 10 13 15 14 13 12 11 10 10 9 8 8 8 8 8 9 9 9 9 8 7 7 7 7 8 9 10 14 18 19 19 19 21 21 21 22 23 24 25 26 26
12 13 13 14 16 19 23 22 17 17 16 16 37 63 75 81 86 86 74 54 44 55 72 80 84 94 100 100 100 89 76 67 54 41 30 21 20 24 24 21 16 14 13 9 9 9 10 13 13 12 12 11 10 9 9 9 8 8 8 8 9 11 12 11 9 8 7 7 7 7 8 10 12 16 19 19 19 19 21 22 22 21 23 25 27 27
14 14 14 14 15 18 21 23 20 17 19 22 35 60 80 86 87 88 83 70 56 58 75 85 86 91 96 99 100 94 86 77 63 55 45 27 18 20 24 25 17 12 12 8 8 10 9 11 12 12 13 11 9 8 9 9 8 9 9 9 10 13 16 14 9 7 6 7 7 7 8 9 11 14 17 18 18 18 20 21 22 21 20 20 22 24
14 15 15 14 14 16 19 23 22 19 19 22 31 56 82 92 92 87 78 72 63 60 75 86 86 92 96 97 100 99 94 87 76 70 61 39 20 17 24 31 23 12 11 8 7 9 9 9 10 12 13 12 11 9 9 10 8 9 9 9 11 13 17 14 8 6 6 7 7 7 7 8 10 13 15 17 17 17 18 19 20 20 20 19 18 19
14 14 15 15 15 15 17 21 23 21 17 18 35 63 86 93 95 90 76 69 64 61 76 89 89 93 98 98 99 99 98 95 86 78 72 52 26 17 23 32 30 18 11 8 6 7 8 8 8 10 14 14 13 11 9 11 10 9 9 11 12 13 16 13 7 6 6 7 7 7 8 8 9 11 14 16 17 17 17 18 19 20 20 19 19 18
14 15 15 15 15 14 16 20 22 24 17 17 42 73 89 90 92 93 80 68 62 59 75 92 91 89 93 99 100 100 100 97 91 84 80 63 37 23 22 27 31 24 14 9 7 7 8 8 6 7 12 14 15 13 10 11 11 9 10 12 14 14 15 13 8 6 7 7 7 7 8 8 8 10 12 13 15 16 17 17 17 18 18 19 20 20
13 15 15 14 16 14 15 19 21 25 19 19 48 81 91 88 92 95 82 71 62 57 76 92 89 87 90 93 96 99 100 95 90 88 86 73 52 38 28 23 26 25 17 10 7 8 8 8 7 6 8 12 15 14 11 10 11 10 11 13 18 19 17 15 11 8 7 7 8 7 8 8 8 9 10 11 13 13 14 15 15 16 16 17 19 20
13 14 14 13 15 15 16 20 21 24 22 22 48 84 95 91 95 95 80 73 66 62 80 91 87 88 88 87 90 95 100 97 91 92 91 79 64 54 41 27 24 23 19 11 7 8 7 7 8 7 7 8 11 13 11 10 10 11 13 14 20 24 23 20 15 12 10 8 8 8 7 8 8 8 9 9 10 11 12 13 14 14 15 16 17 18
13 13 14 13 14 15 16 20 21 22 22 23 40 75 98 96 95 96 83 70 62 66 84 89 83 83 83 84 87 90 96 98 95 97 95 82 70 65 54 38 27 23 20 15 10 9 7 6 8 8 7 7 8 11 11 11 10 11 14 16 20 26 27 25 20 14 12 11 10 11 11 9 8 8 8 8 9 9 10 10 12 13 13 15 16 16
12 12 14 14 14 17 18 21 21 21 23 24 33 60 87 92 86 89 86 71 61 68 82 84 78 77 79 81 83 87 94 98 98 99 98 89 76 71 63 47 34 25 20 17 14 12 8 6 7 8 8 7 8 9 9 10 10 10 12 15 18 23 26 28 24 15 12 12 11 13 15 14 12 10 10 11 10 10 9 9 9 10 11 12 13 14
13 13 16 17 16 19 22 21 19 20 23 25 35 51 68 78 80 85 84 69 61 68 77 80 78 77 79 80 80 86 92 97 101 99 100 96 84 76 68 55 43 30 21 19 17 15 13 10 7 6 8 8 8 9 9 9 10 10 11 12 14 18 22 25 24 16 11 11 11 13 16 18 17 15 14 14 14 13 13 11 11 11 11 12 12 13
16 18 19 19 22 22 22 22 23 27 29 32 45 60 68 75 80 90 89 65 51 60 70 73 74 75 80 82 83 88 88 92 99 99 99 98 90 81 71 62 52 37 26 22 18 18 18 15 11 7 7 8 8 9 9 10 10 10 11 11 11 13 17 21 21 17 13 12 12 13 17 20 20 19 18 18 18 16 15 15 15 15 14 13 12 12
22 30 28 24 27 27 24 23 29 42 47 48 56 68 82 88 82 85 91 76 57 55 58 62 66 70 77 84 87 90 90 93 99 99 99 99 95 86 76 68 60 46 33 25 21 21 21 20 16 12 8 7 7 8 9 10 10 10 12 12 12 12 14 16 18 17 15 15 16 16 19 24 24 22 20 21 20 19 18 17 19 20 18 18 16 14
27 37 38 32 30 31 31 31 33 44 53 55 56 62 79 93 89 83 84 82 74 64 55 56 64 70 75 83 88 89 89 94 98 99 100 100 96 89 82 74 66 53 39 29 24 22 23 22 18 15 13 8 7 7 8 9 9 10 11 11 13 13 13 13 14 14 15 17 19 20 22 25 27 26 24 23 21 19 19 19 21 22 20 20 20 17
38 42 40 38 38 35 37 45 47 47 54 62 61 60 74 91 95 88 79 73 70 66 61 57 63 71 75 81 87 87 87 91 94 97 100 100 97 92 86 78 71 60 44 33 28 23 24 26 21 18 17 13 9 8 7 8 8 9 10 10 12 13 14 14 12 12 14 17 20 24 26 27 30 31 30 29 26 24 22 20 21 23 22 22 22 19
50 52 45 38 45 46 41 50 59 55 55 68 73 67 70 83 90 86 82 80 70 60 59 59 65 73 75 78 82 82 85 88 90 92 95 98 97 94 91 85 77 68 52 39 33 25 22 27 26 21 19 17 14 10 8 8 8 8 9 9 10 12 14 14 13 12 13 17 20 23 27 30 32 33 33 34 33 32 31 27 23 23 26 28 27 24
58 59 55 41 43 52 49 49 59 61 56 61 72 72 68 76 87 82 78 80 73 58 52 57 69 74 73 76 76 75 80 85 87 87 89 93 91 92 97 95 89 80 61 44 36 28 21 23 28 26 23 22 19 15 12 9 8 8 8 9 10 11 13 14 14 14 14 17 20 22 24 27 31 34 35 35 36 38 41 39 32 28 29 31 31 29
65 64 63 52 45 50 53 51 54 62 63 55 55 67 75 81 86 84 80 75 68 62 58 59 70 74 72 74 72 70 73 78 82 82 84 88 89 93 99 100 96 85 61 42 37 33 26 21 24 28 28 27 24 20 16 13 12 10 9 9 10 10 13 14 16 16 16 16 18 21 21 22 26 32 35 36 36 39 45 46 41 37 35 34 32 30
65 68 66 62 57 52 50 53 55 59 64 60 52 59 76 85 80 79 89 88 72 67 65 58 62 68 71 74 71 67 67 70 75 76 77 84 92 98 99 101 98 76 47 35 37 39 35 27 23 24 27 28 27 23 20 16 15 14 12 11 10 10 12 14 16 16 16 16 16 17 18 17 19 24 30 35 37 39 43 44 42 40 39 37 34 31
56 69 70 66 67 63 53 52 58 61 61 62 64 65 68 78 78 72 85 97 85 73 69 63 61 66 72 74 72 68 66 65 68 70 71 79 92 100 99 101 92 61 35 34 40 43 45 41 33 26 23 24 24 25 24 20 18 16 16 15 13 13 13 14 15 15 15 15 15 15 15 14 15 16 21 29 35 38 40 39 38 38 40 40 37 33
49 60 71 71 69 69 62 54 56 63 64 63 74 81 73 70 72 70 83 100 95 85 83 81 77 76 78 77 74 71 68 65 65 65 68 78 91 98 100 100 84 52 38 43 48 49 51 52 51 42 31 24 23 25 26 24 22 20 19 18 17 17 16 16 17 16 16 16 15 15 14 13 14 15 17 22 28 33 36 37 36 36 38 39 36 32
50 52 63 73 73 67 65 63 58 60 66 68 74 81 80 74 68 73 90 100 95 93 93 90 87 85 82 79 76 75 71 68 65 64 73 87 95 97 100 98 76 51 46 51 56 58 57 57 59 55 45 34 28 29 31 30 29 26 24 23 22 22 21 20 20 19 18 18 17 16 15 15 15 15 16 20 23 26 29 32 34 35 34 31 27 23
55 54 55 66 77 72 64 65 64 61 63 69 72 72 78 81 73 75 92 95 89 93 95 92 92 91 85 78 74 74 73 73 68 67 80 96 99 98 101 96 73 53 52 58 61 62 60 55 55 58 57 49 42 42 43 42 41 38 35 33 33 33 30 26 25 24 22 21 19 19 18 17 16 16 17 18 20 22 22 24 27 28 26 21 18 17
54 57 52 57 71 73 64 61 66 66 62 62 65 68 78 85 76 71 81 86 86 91 93 93 95 94 89 81 72 67 68 72 72 72 85 99 99 98 101 97 79 60 56 60 62 62 61 57 55 56 59 59 56 55 56 54 51 48 46 45 46 47 43 37 34 32 30 27 24 23 22 21 19 18 18 18 19 20 20 20 20 20 19 17 16 16
52 55 52 51 59 67 68 63 62 65 66 62 61 67 77 83 77 69 69 73 78 85 90 94 97 98 96 88 74 63 59 66 72 75 84 97 101 99 100 99 91 77 66 60 57 59 60 60 59 57 57 59 59 58 57 54 49 45 45 48 51 52 49 45 43 40 37 33 30 28 26 25 23 19 19 19 19 20 20 21 21 19 18 17 16 16
44 53 55 50 49 56 65 68 62 60 63 63 60 67 77 80 74 69 69 68 66 70 81 94 99 99 101 95 80 64 55 57 67 74 82 94 100 99 100 101 98 94 86 72 61 60 63 62 61 59 57 56 54 54 52 48 42 38 36 39 43 42 39 37 38 39 38 35 35 35 32 28 25 20 18 18 18 19 20 20 20 20 18 17 16 15
23 38 51 54 51 49 53 62 65 62 61 59 59 65 75 81 77 69 67 67 62 57 66 87 99 99 101 100 88 72 60 54 58 69 79 92 100 100 100 100 99 100 99 88 75 70 69 66 63 60 57 55 55 56 55 52 48 44 39 35 34 33 32 30 30 33 34 33 33 34 33 29 25 22 18 16 16 17 18 18 18 18 16 15 15 14
7 14 28 43 53 54 50 52 58 61 60 59 60 64 72 81 83 76 69 66 63 53 50 71 98 101 99 101 93 83 76 63 54 60 73 85 95 99 100 101 100 99 100 97 92 87 82 77 73 70 65 61 61 63 64 64 64 65 63 55 43 37 37 34 31 32 34 36 36 31 26 22 20 20 18 16 14 13 14 15 15 15 14 13 13 12
5 5 8 18 35 49 55 55 54 56 58 57 57 62 71 79 82 81 76 68 62 52 41 56 90 102 99 100 94 88 88 76 57 53 61 72 86 96 98 100 100 99 99 99 99 98 95 91 88 86 81 76 73 73 74 76 80 86 90 85 73 62 54 48 45 44 43 47 50 44 34 25 18 16 14 13 12 12 12 12 11 13 13 11 11 11
6 6 5 5 11 25 41 53 57 55 55 54 52 53 63 76 80 80 79 72 62 54 42 50 82 101 99 98 95 90 89 80 61 50 50 61 78 89 92 94 98 100 100 100 100 100 99 98 97 96 95 92 89 86 85 88 91 95 99 99 96 91 81 71 66 61 55 57 66 72 67 54 39 27 19 13 11 9 9 11 10 9 9 9 10 10
6 6 6 6 4 7 17 34 49 54 53 53 53 50 54 69 79 79 80 76 64 53 45 50 76 98 100 96 93 84 71 59 51 54 63 68 71 75 79 85 93 98 99 99 99 99 100 99 97 96 96 97 97 95 94 95 96 97 99 99 98 99 95 87 83 79 72 68 73 85 92 85 70 60 50 39 29 19 11 8 9 11 12 12 14 16
7 7 6 6 6 5 5 14 31 46 51 52 54 54 54 63 73 76 80 80 69 56 49 51 69 92 99 93 86 79 69 58 53 63 76 75 65 63 68 74 83 90 94 96 97 97 99 100 100 99 97 97 99 99 98 97 98 98 100 98 97 99 98 93 91 90 88 84 82 86 95 95 89 87 83 73 64 56 41 22 15 20 21 20 22 27
7 7 7 7 8 7 5 8 20 36 47 51 52 54 56 61 67 69 73 77 71 63 56 51 60 80 92 94 91 84 79 75 71 71 71 69 69 70 65 62 70 79 85 92 96 95 95 95 98 100 100 99 100 100 100 100 100 98 95 92 92 94 96 96 96 95 94 94 93 94 96 95 93 95 96 90 83 82 77 58 41 33 30 37 45 39
8 8 8 10 11 11 9 12 20 29 39 47 52 54 56 58 62 64 65 67 66 67 65 58 59 67 74 84 93 92 83 77 78 78 75 77 88 87 69 59 64 71 77 84 88 89 89 89 91 93 94 92 92 94 96 96 95 94 93 90 88 87 87 88 91 95 97 97 97 99 100 97 95 97 99 97 88 86 91 87 72 55 49 63 72 54
8 8 10 11 14 17 15 15 20 25 31 38 44 49 53 55 58 61 63 63 62 67 72 68 64 65 65 68 79 88 89 83 78 77 79 86 97 96 84 78 77 76 81 85 84 85 87 87 87 84 81 80 79 80 83 85 90 94 94 92 91 90 88 85 84 88 92 93 95 99 100 98 98 98 98 100 97 94 97 94 83 74 70 73 75 66
9 10 12 12 14 19 20 19 20 23 26 29 32 38 44 48 51 54 58 61 63 69 78 77 70 67 66 66 68 74 82 85 79 73 73 83 96 97 94 91 83 78 85 90 88 88 88 86 85 81 77 78 79 79 78 79 85 89 89 91 92 88 87 91 93 91 91 90 92 97 99 99 100 98 97 99 99 98 100 98 91 87 85 80 76 76
9 13 16 14 12 16 20 21 20 20 21 22 22 26 31 37 43 47 50 54 59 67 78 81 76 69 66 70 72 67 66 70 70 63 57 68 90 99 94 90 83 78 84 89 87 87 84 82 84 83 80 81 82 83 81 78 78 77 78 86 91 89 88 91 95 98 99 97 96 98 100 100 100 99 98 97 98 98 100 102 98 93 92 91 88 85
9 14 21 21 14 12 14 16 18 17 17 17 17 18 21 25 32 38 42 47 53 62 72 78 79 74 66 67 72 69 62 59 60 57 48 54 83 99 91 87 88 84 84 84 81 79 79 77 78 79 81 82 79 77 77 74 72 76 82 86 88 90 91 88 88 94 98 98 99 99 99 99 99 100 99 97 98 100 100 101 100 97 97 97 95 92
10 15 23 26 21 15 10 10 11 12 13 14 14 14 14 17 22 29 36 42 49 57 68 76 80 77 68 65 67 65 61 59 60 59 47 50 80 98 90 86 89 84 82 81 76 73 71 67 67 69 73 78 82 83 83 78 76 82 90 91 89 89 90 90 91 94 94 95 98 99 99 99 99 100 101 99 99 100 100 100 99 99 99 99 99 98
12 17 23 26 25 22 17 13 11 12 14 17 18 17 16 15 17 23 30 37 44 54 67 77 84 82 74 69 66 60 55 56 59 57 45 46 68 86 87 87 85 78 77 77 72 68 62 60 68 75 73 74 77 78 78 75 72 72 74 79 84 84 80 77 81 87 92 96 99 99 99 99 97 97 100 100 99 100 100 100 99 99 99 100 100 99
12 15 21 27 28 25 23 20 17 18 20 21 21 23 22 20 19 20 24 30 37 48 62 75 83 83 79 75 70 61 53 52 55 54 47 44 53 64 73 83 83 77 74 72 69 65 58 54 62 74 83 88 86 79 76 73 65 58 58 67 76 76 71 70 75 84 93 98 99 98 98 97 97 98 99 98 96 96 96 97 98 98 99 100 100 100
11 15 23 31 33 28 25 23 21 20 21 20 20 22 23 23 22 20 21 26 32 41 54 68 78 81 82 81 75 64 55 52 55 58 54 49 50 52 57 69 79 80 79 75 71 67 62 55 50 52 66 81 85 85 88 86 75 64 61 64 68 69 70 74 79 85 92 96 97 97 98 100 99 97 97 96 94 92 91 92 92 92 95 97 98 99
16 24 30 32 31 28 27 26 24 23 22 21 21 22 22 24 26 24 22 25 29 36 47 61 71 75 78 81 79 70 60 53 53 58 58 54 52 51 50 56 67 73 77 79 75 69 65 62 56 51 51 56 66 79 90 93 87 79 75 71 70 73 76 78 80 87 92 94 94 93 94 96 93 89 88 91 93 93 92 90 88 88 91 93 93 92
22 32 36 32 26 23 24 27 27 26 25 25 25 25 25 26 28 27 25 25 29 33 39 49 59 66 72 78 77 71 66 57 50 52 58 58 56 54 51 53 60 64 68 73 72 65 61 58 59 60 54 48 55 71 85 94 95 89 85 82 81 84 89 88 90 96 98 94 90 86 84 84 83 82 84 87 90 93 93 92 91 93 95 95 93 89
25 36 41 36 29 25 24 26 27 27 28 29 29 30 30 30 30 29 27 27 28 30 31 36 43 51 59 68 70 68 67 62 50 46 53 60 61 57 53 52 56 57 59 64 66 62 58 56 57 60 57 50 49 53 64 81 92 92 90 89 88 89 92 91 89 91 90 86 82 79 76 75 75 75 75 74 75 77 78 79 81 84 85 86 86 84
28 41 43 37 32 31 30 30 29 29 31 34 38 38 35 32 32 30 29 28 28 28 28 30 38 47 51 54 57 56 57 59 52 45 48 57 62 61 57 54 54 53 52 55 58 57 56 57 57 58 57 56 54 51 51 61 74 81 86 88 87 86 86 84 82 81 80 77 75 72 71 71 69 68 67 66 64 62 61 60 60 60 60 60 61 63
34 45 42 35 34 35 35 34 32 33 38 47 56 56 48 37 33 31 29 29 29 28 24 24 38 56 60 55 54 54 51 51 49 46 49 57 62 63 62 58 55 54 50 49 51 51 52 57 61 61 59 59 59 58 57 57 60 66 72 75 76 75 72 70 70 69 68 67 66 65 64 64 63 63 63 63 62 61 60 58 56 54 52 50 49 49
41 48 42 35 33 32 31 32 34 40 48 57 66 70 59 40 30 29 29 29 30 31 35 43 55 65 67 68 77 82 70 54 48 50 56 63 66 68 66 61 57 55 49 46 47 48 50 56 64 67 67 66 64 64 63 61 59 60 63 64 65 63 59 56 56 55 54 53 52 52 52 52 52 53 53 53 54 53 53 52 51 50 49 48 47 46
47 50 44 38 30 24 25 33 42 50 54 57 68 77 66 42 30 30 31 34 34 35 51 74 80 68 61 72 92 99 84 63 58 67 74 75 74 71 66 63 60 53 46 46 49 49 51 59 68 71 72 72 70 67 65 64 62 63 65 65 65 63 59 56 54 52 51 50 48 47 47 46 45 45 45 45 45 44 43 42 40 39 38 37 37 36
Wind_Speed
6 6 8 13 18 21 23 24 23 23 24 23 23 21 19 18 18 21 22 22 22 20 19 18 17 17 19 24 26 24 22 20 19 18 19 19 19 19 17 16 15 15 15 15 14 14 13 12 12 12 11 11 11 11 11 12 13 13 13 13 12 12 13 13 12 12 12 12 12 12 12 13 13 13 13 13 14 14 14 14 13 13 13 13 13 13
8 8 12 16 19 22 24 24 23 24 24 23 22 21 20 20 20 21 21 21 21 21 20 18 16 17 19 23 27 27 25 21 19 19 19 19 20 19 18 17 16 15 14 15 14 13 13 12 13 13 12 12 11 11 12 12 13 13 13 13 12 12 12 13 13 12 12 12 12 11 11 12 13 13 12 13 14 14 14 14 13 13 13 12 12 12
11 12 15 16 18 22 25 24 23 23 24 23 22 21 21 21 20 20 20 21 21 20 20 18 16 17 19 23 28 30 26 23 22 22 22 21 21 20 18 17 16 15 15 15 15 14 13 12 13 13 12 11 11 11 12 12 13 13 13 13 13 12 12 13 13 13 12 12 13 12 12 11 12 12 12 12 13 13 13 12 12 12 12 12 11 11
13 14 16 17 18 21 25 25 24 23 24 23 22 22 21 21 20 19 20 21 21 20 20 18 16 17 17 21 28 31 27 25 24 23 22 22 22 22 20 19 17 17 16 16 16 15 13 13 13 14 14 13 13 12 12 12 13 13 13 13 13 13 12 12 13 13 13 13 13 13 13 12 12 11 12 12 12 12 12 11 11 11 11 11 11 11
15 15 16 18 19 21 25 27 25 23 24 24 24 23 22 23 23 21 21 21 20 21 20 18 17 17 17 19 27 33 28 26 25 24 23 22 23 23 21 21 20 19 18 17 17 17 15 15 15 15 15 14 14 13 13 12 13 13 13 13 13 13 12 12 12 13 13 13 13 13 13 13 12 12 11 11 11 12 11 11 10 10 10 10 10 10
16 16 17 20 22 23 26 28 27 24 25 25 24 23 23 23 24 23 23 22 21 21 20 19 17 16 17 18 26 35 31 28 27 24 24 23 22 22 20 20 21 19 19 18 18 18 17 16 16 16 15 15 14 13 13 12 12 12 13 13 13 13 12 12 12 13 13 13 13 12 12 12 12 12 12 12 12 12 11 11 10 10 9 9 9 9
16 17 20 23 24 23 25 27 28 25 25 25 23 23 24 25 25 24 25 24 22 21 20 20 19 18 18 16 21 35 35 31 30 27 25 24 22 21 21 20 20 20 19 18 17 17 18 18 17 17 16 15 15 14 14 13 13 13 13 13 13 13 13 12 13 13 14 14 14 13 13 12 12 11 12 12 12 12 11 11 10 10 10 9 9 9
17 19 22 23 23 22 23 25 27 25 24 25 24 24 25 27 26 24 25 24 23 23 21 20 21 21 21 16 16 31 37 33 32 30 26 24 23 21 22 22 21 20 19 18 17 17 18 19 18 18 18 17 16 16 16 15 14 14 13 13 13 12 12 12 12 13 13 13 13 14 13 13 13 12 12 12 12 11 11 10 10 10 10 10 9 9
18 21 22 21 20 20 21 23 26 26 24 24 25 25 25 27 26 24 25 24 23 23 21 21 23 22 21 19 16 23 36 37 33 32 28 24 24 22 22 23 22 21 21 20 19 19 19 20 19 18 19 18 18 17 17 16 15 14 14 14 13 12 12 12 12 12 12 12 12 12 13 13 13 13 12 12 12 11 11 10 9 9 9 9 9 8
19 21 20 19 19 20 21 23 26 26 23 24 26 26 25 26 25 24 25 25 23 22 21 21 23 23 21 19 17 17 30 39 34 32 31 27 25 24 22 23 23 22 21 21 20 20 20 20 20 19 19 19 18 17 17 16 15 14 14 14 14 13 12 12 12 11 11 11 11 11 11 11 11 11 11 11 11 11 11 10 10 9 9 9 9 8
20 19 18 19 19 20 22 23 24 24 23 24 27 27 25 25 24 23 24 26 25 22 23 22 22 25 22 19 18 15 21 36 38 33 32 30 27 26 25 24 24 23 22 22 21 20 20 20 20 20 19 19 18 17 17 17 16 15 14 14 14 14 14 12 12 12 12 12 11 11 11 10 10 10 10 9 10 10 10 10 10 9 9 8 9 8
18 17 17 18 19 20 21 22 23 23 22 24 27 27 25 24 24 23 22 24 25 23 24 24 22 23 22 20 21 18 16 27 40 39 34 32 29 27 26 26 25 25 24 23 22 21 20 18 19 20 19 18 18 18 17 17 17 16 15 15 15 16 16 14 13 12 12 13 12 12 11 10 10 10 9 9 9 9 10 10 10 9 9 8 8 8
16 16 17 18 18 19 20 21 22 22 22 23 24 25 25 24 22 21 20 23 24 24 24 23 21 19 18 19 22 22 17 17 33 43 40 36 33 29 28 27 26 26 26 24 24 22 20 18 19 20 19 19 19 19 18 18 17 17 16 16 16 16 16 16 15 14 13 13 12 12 11 10 10 10 10 9 9 9 9 9 9 9 9 8 8 7
14 15 16 16 17 18 18 19 19 20 21 21 21 23 22 22 20 18 19 22 24 24 24 23 21 17 16 17 19 21 19 15 21 40 44 38 35 33 30 30 29 28 27 26 25 23 21 20 20 20 21 21 21 20 20 18 18 18 17 17 16 16 15 15 15 15 14 13 13 12 11 11 10 10 10 10 10 9 8 8 8 8 8 8 8 7
13 14 15 15 16 17 17 18 19 20 20 20 20 21 20 20 20 19 18 19 22 24 25 23 21 18 16 16 17 18 17 14 12 29 44 42 38 36 34 33 32 31 30 28 26 24 23 23 23 22 22 23 23 22 21 20 19 19 18 17 16 16 16 16 16 16 15 14 13 13 12 11 11 10 10 10 10 10 9 8 8 7 7 7 7 7
14 14 15 15 16 16 16 17 20 21 21 21 21 22 23 21 20 20 19 18 19 21 23 22 19 18 16 16 17 17 16 13 8 15 35 44 41 38 38 36 35 33 32 31 28 26 25 26 26 24 24 24 24 23 23 22 21 20 19 18 17 17 17 17 17 17 16 16 15 14 13 12 12 11 11 11 10 9 9 8 8 7 7 7 6 6
14 16 16 16 16 17 17 18 20 22 23 23 23 23 23 21 19 19 19 19 20 19 20 21 19 18 17 16 16 16 16 16 12 8 19 36 41 39 39 37 34 34 34 33 30 28 27 27 27 27 26 25 24 24 24 24 23 22 21 20 19 18 18 17 17 18 18 17 16 15 15 14 14 13 12 11 10 9 9 8 7 7 7 7 6 6
15 17 19 18 17 16 18 19 21 24 24 23 24 23 22 22 22 20 18 18 19 20 19 19 19 18 18 18 17 15 15 16 16 13 12 23 33 38 40 37 34 33 35 35 33 31 30 29 29 29 28 26 25 25 26 26 25 24 23 23 22 21 20 19 19 19 19 19 18 17 16 16 15 14 13 12 12 11 10 9 8 7 7 7 7 7
16 17 19 20 18 17 18 21 23 25 25 24 23 23 24 26 26 22 19 18 18 19 20 19 18 18 19 20 18 16 15 16 16 15 14 17 25 33 39 39 35 34 35 36 36 34 32 31 30 30 30 28 27 27 27 27 26 26 25 25 24 23 22 21 20 20 20 20 19 18 17 17 16 15 14 14 13 13 12 10 9 8 8 8 8 8
16 18 20 21 20 19 20 22 24 25 26 25 23 24 25 27 28 25 21 20 19 18 19 19 17 17 17 19 19 17 16 16 16 15 14 16 22 29 38 41 37 34 35 36 36 34 33 32 31 31 31 30 30 29 28 27 27 26 26 26 25 25 24 22 21 21 20 20 20 19 18 17 17 16 15 15 14 14 13 12 11 10 10 10 9 9
18 18 20 21 20 21 22 23 24 25 25 24 23 24 24 24 26 26 22 20 20 19 17 18 17 17 17 18 18 18 18 18 18 17 15 15 20 29 38 42 37 34 34 35 34 34 33 33 32 32 32 32 32 31 30 29 28 27 27 26 26 26 25 24 23 22 22 21 20 20 19 18 18 17 17 16 16 15 14 14 14 13 12 12 11 10
19 20 21 22 21 21 24 25 24 23 23 23 22 23 23 23 24 25 22 19 20 20 18 16 17 17 17 17 17 18 18 18 19 18 17 17 19 30 40 41 36 34 34 33 33 33 33 33 32 33 32 32 32 31 30 29 29 28 27 27 27 26 25 25 24 24 23 22 22 21 21 20 19 18 18 18 17 16 16 16 15 15 15 14 13 12
19 22 22 23 23 23 24 26 25 24 23 23 22 19 21 23 24 24 22 17 16 17 16 14 14 16 16 16 17 17 17 18 18 17 18 19 20 32 41 40 36 36 35 34 33 33 32 33 33 33 33 32 31 30 29 29 28 28 27 27 27 26 26 25 24 24 24 23 23 23 22 21 20 20 19 19 19 18 18 18 17 16 16 15 14 14
18 22 23 23 24 25 26 26 27 26 24 23 21 18 18 21 22 22 20 14 13 12 12 12 12 13 15 16 15 14 14 15 16 16 16 17 23 34 42 41 38 38 37 36 35 34 34 34 33 33 32 31 31 30 28 28 27 27 27 26 26 26 26 25 25 24 24 24 24 24 23 23 22 21 21 21 20 20 19 19 18 18 18 17 16 15
17 21 24 25 24 26 27 28 28 28 26 24 22 20 20 21 21 20 16 12 11 11 12 12 10 11 14 15 15 13 12 12 14 14 13 14 24 35 41 41 39 39 39 38 37 36 35 33 32 31 31 30 30 29 27 27 26 26 26 25 26 26 26 26 25 25 25 25 25 24 24 24 23 23 23 23 22 21 20 20 20 19 19 18 17 16
17 20 24 26 26 27 29 29 28 28 28 27 24 23 23 22 20 20 16 12 11 12 13 12 9 9 11 13 14 13 12 12 13 13 12 12 24 37 42 40 39 40 40 39 39 37 35 34 32 31 31 30 29 28 27 27 27 27 27 27 26 26 26 27 27 27 26 26 26 26 25 26 26 25 25 25 24 23 22 21 21 20 20 19 18 18
17 19 22 26 29 29 29 30 30 29 29 29 28 26 25 23 20 20 18 14 13 14 14 12 10 10 10 12 14 14 13 14 13 13 12 10 20 35 40 40 39 40 41 40 40 39 37 35 34 33 32 31 30 29 28 27 27 27 27 27 28 28 28 28 28 27 28 28 28 27 27 27 28 28 27 27 26 25 23 22 22 22 21 21 20 20
16 18 20 24 28 31 32 32 32 31 30 30 31 29 27 25 23 21 19 17 16 15 15 14 12 11 11 12 14 14 14 16 16 14 11 9 13 27 36 40 40 40 41 42 41 40 38 37 36 34 33 32 31 30 29 28 27 27 27 27 28 29 29 30 30 29 28 29 29 29 29 30 30 31 30 29 28 26 25 24 24 24 24 23 23 23
15 17 19 21 25 30 33 34 34 33 32 31 31 31 29 26 25 24 22 20 19 17 16 16 14 13 11 11 12 13 13 15 17 15 9 8 9 18 28 36 40 41 43 43 43 42 40 38 36 34 33 32 31 30 29 28 27 26 25 26 27 28 28 29 29 29 28 28 28 29 30 31 31 32 32 32 30 29 27 27 27 27 26 26 25 25
14 16 18 19 22 26 31 34 35 36 35 33 32 32 32 29 26 25 24 23 22 20 18 18 17 15 13 11 11 12 12 13 16 16 11 8 7 10 18 25 32 39 46 47 45 44 41 38 37 35 33 32 31 31 30 29 29 27 26 26 26 27 28 28 28 28 28 27 27 28 29 30 30 31 32 33 32 31 30 29 29 28 28 28 27 27
14 16 17 17 20 23 27 30 34 37 38 37 35 33 33 32 30 27 25 25 24 22 21 20 19 18 15 13 11 12 12 11 12 15 14 9 8 5 10 15 19 29 42 46 43 41 39 37 36 36 35 34 32 31 31 30 29 29 28 28 28 29 29 30 30 30 29 29 28 28 28 28 27 28 29 30 31 31 31 30 30 30 29 29 28 27
16 17 18 17 18 21 24 27 30 34 38 39 39 36 34 33 32 30 28 27 26 24 22 21 22 20 17 15 14 14 13 11 10 11 13 12 9 6 4 8 14 21 29 34 34 35 36 38 38 37 36 36 35 34 32 32 32 31 32 32 33 33 33 33 33 33 32 31 29 29 29 29 27 26 27 27 28 30 31 31 30 30 29 28 28 27
16 18 19 20 19 20 23 25 27 30 34 37 39 39 37 34 33 32 30 29 28 25 22 23 24 23 19 17 17 16 15 13 11 9 10 12 12 9 5 3 9 15 19 22 24 25 27 32 38 41 41 39 37 36 36 35 35 34 35 35 35 35 36 37 37 36 35 33 30 31 33 34 30 27 27 27 26 26 28 29 29 29 28 28 28 27
16 18 20 20 21 22 23 24 25 26 28 31 35 38 38 36 35 34 32 30 30 27 23 23 25 25 23 21 20 19 17 16 14 13 11 11 13 12 9 6 6 10 13 15 17 19 19 22 28 36 42 42 40 39 38 37 37 36 35 34 33 34 36 38 39 39 38 37 35 34 36 38 35 32 31 30 28 27 26 26 27 29 29 29 29 28
15 17 19 19 20 21 22 22 23 23 24 26 30 33 36 36 36 35 33 32 32 30 26 24 26 27 26 24 23 22 20 18 17 14 13 13 15 14 13 12 10 10 11 11 13 15 15 15 17 23 29 32 33 33 33 33 33 32 31 31 31 32 33 34 37 41 42 41 40 39 39 38 37 37 37 35 33 32 29 27 27 29 29 28 28 28
15 16 18 18 17 17 19 20 20 21 21 22 25 28 32 34 35 35 35 35 34 33 29 26 27 28 28 27 27 25 23 20 19 16 15 17 18 16 15 16 16 16 15 13 12 12 12 13 14 15 17 19 20 21 22 22 23 23 23 24 26 28 31 33 35 39 43 45 44 44 43 41 40 41 41 39 37 36 34 31 30 30 28 27 28 29
14 15 16 17 16 16 16 18 18 18 19 20 22 25 28 31 33 34 34 35 35 34 32 29 28 29 29 29 29 29 27 24 21 21 21 21 19 16 16 16 16 16 17 17 15 13 12 12 13 14 13 13 14 14 15 15 16 16 16 17 18 21 25 31 35 38 42 45 48 50 48 44 42 43 42 39 39 38 37 35 34 31 29 30 31 31
13 14 15 16 16 16 16 16 17 17 18 19 21 23 25 27 30 32 33 33 34 35 35 32 29 29 31 31 31 31 30 28 26 26 26 24 22 19 16 15 16 17 18 17 14 13 13 13 13 13 12 12 12 13 14 14 14 14 13 12 13 14 16 21 28 34 38 42 46 52 52 48 45 46 46 43 41 41 38 35 34 33 33 34 35 34
14 13 14 15 16 16 17 17 17 17 18 19 20 22 24 25 27 29 31 32 33 34 36 35 32 30 31 34 34 32 31 31 30 30 30 28 25 23 17 12 15 17 15 14 13 12 13 13 13 13 14 13 14 14 14 14 13 13 13 12 12 11 11 12 16 22 29 34 38 44 49 50 47 45 45 45 43 41 39 37 35 34 34 36 37 36
14 14 13 14 15 17 19 19 19 18 18 19 20 21 22 23 25 27 29 31 32 33 35 37 35 31 30 32 34 33 32 33 32 32 32 29 25 25 21 12 10 13 13 12 11 12 13 13 13 13 14 14 16 17 17 16 15 13 13 13 13 12 12 12 14 16 19 25 31 35 39 43 44 42 42 42 40 37 36 37 37 36 35 36 38 37
15 14 14 14 15 17 20 21 21 20 19 19 20 21 22 22 24 26 28 29 30 32 34 36 36 33 30 29 30 30 31 33 33 32 32 27 20 21 22 17 11 12 14 13 12 13 14 14 14 16 16 14 14 15 15 15 15 14 12 12 13 12 10 9 11 12 12 14 21 25 27 28 30 31 33 35 36 36 36 36 37 36 35 35 36 35
15 15 14 14 15 17 19 21 21 21 21 21 22 23 23 22 23 24 26 28 29 31 33 35 36 35 31 29 27 26 27 30 30 29 30 28 21 16 15 15 15 15 16 16 15 15 16 16 15 17 18 17 16 16 16 16 17 18 17 16 15 15 14 12 12 12 11 11 14 16 16 15 14 15 17 19 24 29 32 31 30 31 31 31 30 29
16 16 16 16 17 18 19 20 20 20 21 22 23 24 24 24 23 23 25 27 29 30 32 35 36 35 32 30 27 25 25 26 27 25 25 27 26 21 16 14 15 17 18 18 17 17 18 18 17 17 18 17 17 19 21 21 22 22 23 21 18 19 19 16 14 13 12 13 14 14 15 14 12 13 14 15 17 20 22 23 24 25 26 27 27 27
17 17 17 18 18 19 19 19 19 20 21 22 23 24 24 24 24 24 25 26 28 29 31 33 35 34 32 31 28 26 24 24 24 23 22 23 24 23 21 18 15 15 17 18 18 18 18 18 20 21 21 20 18 17 18 19 19 21 23 23 21 20 18 16 16 17 16 15 15 15 16 14 13 13 15 15 16 18 20 22 24 25 25 26 26 26
16 17 17 18 18 19 19 19 19 20 21 22 23 24 24 24 24 24 24 25 26 28 29 32 34 34 32 30 29 27 24 23 23 23 22 21 21 21 22 21 17 14 13 15 15 15 15 16 19 21 22 22 22 21 20 18 18 20 21 22 21 20 19 19 19 20 19 18 16 16 16 15 13 13 15 16 16 17 18 21 23 24 25 25 25 25
17 16 17 17 18 19 19 19 20 21 22 22 23 23 23 23 24 24 24 25 25 26 27 30 32 33 32 30 29 28 26 25 24 24 23 22 21 20 21 22 19 16 14 14 14 13 13 14 17 19 20 20 20 19 18 16 16 17 20 22 22 21 21 21 21 21 19 18 17 17 18 17 16 16 17 18 18 18 18 20 22 23 24 24 24 24
17 16 16 18 19 19 18 19 21 21 21 21 22 22 22 23 23 23 23 24 25 25 26 29 32 34 34 33 31 30 30 28 27 27 26 25 24 23 22 22 20 19 18 18 17 16 15 15 16 17 19 20 20 19 18 15 13 13 16 18 20 21 21 22 23 23 21 19 18 18 18 18 18 18 19 20 21 21 21 22 23 25 25 26 26 27
18 17 17 17 18 18 18 19 20 20 19 19 20 21 21 21 23 23 23 24 25 26 27 29 30 33 35 36 35 34 34 34 32 31 30 29 27 26 25 24 22 22 22 22 21 20 19 18 17 18 19 20 20 20 20 18 15 14 15 16 17 18 19 20 21 23 22 21 20 20 20 21 21 22 22 23 24 25 25 26 27 28 29 29 30 30
17 17 16 16 15 15 15 16 17 17 17 17 18 19 19 20 22 23 24 25 26 27 28 28 29 31 33 35 36 37 38 38 37 35 33 32 30 29 28 27 26 25 25 25 25 23 22 21 20 20 20 21 22 21 21 21 20 19 19 19 20 21 21 22 22 23 23 23 23 23 24 24 25 25 26 27 27 28 29 30 31 32 32 33 33 34
17 17 16 15 14 13 13 14 15 15 15 16 16 17 18 18 21 23 25 26 27 28 28 27 28 31 32 31 33 36 37 37 37 36 35 34 33 32 31 30 29 28 26 26 26 26 24 23 21 21 21 21 22 23 22 22 22 22 21 22 22 23 23 23 24 24 24 24 24 24 25 26 26 27 28 29 30 31 32 33 33 34 35 35 36 37
18 18 16 14 13 12 12 12 12 13 15 15 15 16 16 17 20 23 25 26 27 28 27 24 27 31 32 30 32 35 36 35 35 35 35 36 35 34 32 31 31 30 28 27 27 26 25 24 23 22 22 22 23 23 24 23 23 24 23 23 23 24 24 24 25 25 26 26 26 27 27 28 28 29 30 31 32 33 34 35 36 36 37 38 38 39
Wind_Direction
239 230 219 213 207 207 209 212 215 219 221 222 222 222 223 227 233 232 224 220 221 221 224 230 233 234 228 212 199 196 197 191 186 186 184 183 178 174 177 179 178 174 173 179 177 169 168 173 174 174 176 173 168 165 158 150 148 145 143 141 140 139 137 135 134 135 135 133 132 133 131 127 124 123 124 126 128 130 132 134 137 141 143 146 148 149
232 226 222 219 212 210 214 216 217 220 221 219 219 220 221 223 229 232 226 221 222 221 221 227 235 234 225 214 202 196 198 192 182 184 186 186 184 181 180 182 180 177 177 179 177 172 172 175 177 176 177 176 171 166 162 155 152 149 144 143 143 143 142 139 138 139 139 137 135 133 131 128 126 127 128 129 130 131 133 136 140 143 146 149 152 154
230 227 226 224 217 214 219 220 219 221 222 218 215 216 220 223 228 233 230 222 220 220 221 226 233 228 220 217 207 196 194 192 183 183 187 187 187 185 184 185 182 180 181 180 176 172 174 179 180 178 176 176 174 169 165 159 154 151 147 146 146 146 145 143 142 143 144 143 140 137 134 133 133 133 132 132 132 132 131 135 141 145 146 149 152 156
232 230 230 228 221 217 221 225 222 220 221 218 213 211 216 222 223 227 232 228 220 218 221 225 230 227 226 224 209 196 193 194 187 184 187 188 189 187 185 187 186 184 185 182 174 169 174 181 183 182 177 174 177 173 168 164 159 154 151 150 148 147 148 146 145 147 149 149 147 143 141 141 140 138 136 135 134 132 131 134 141 145 147 149 151 156
232 231 232 231 226 219 221 227 227 222 221 220 215 211 215 221 222 222 227 229 224 219 222 226 229 231 238 233 208 196 195 198 194 189 189 189 192 190 185 188 190 187 187 183 173 168 173 181 183 184 180 176 177 174 169 166 162 158 154 153 150 148 149 147 146 148 151 152 150 147 146 144 143 141 138 137 134 132 133 135 139 142 145 148 150 153
234 232 232 232 228 221 219 224 228 225 222 222 218 212 216 223 226 226 228 228 223 220 223 227 229 232 240 238 212 198 195 198 199 196 192 191 193 191 186 192 197 191 189 187 177 169 173 179 182 185 184 179 176 173 171 168 164 162 160 156 153 150 150 148 145 148 150 152 151 149 147 145 144 142 140 139 137 135 136 137 138 139 140 143 145 147
237 234 232 232 231 226 220 222 228 228 225 224 220 214 219 225 226 228 230 230 224 220 224 229 232 233 238 244 218 202 198 198 200 199 197 194 191 189 186 194 203 198 192 190 182 172 172 178 181 184 186 181 177 173 172 172 168 166 165 160 156 152 151 149 147 148 151 152 152 152 150 149 149 148 145 143 139 137 139 141 140 139 138 139 140 141
237 236 236 236 237 234 225 223 229 232 227 225 221 217 223 228 229 230 232 234 228 221 225 231 232 234 241 253 232 208 203 200 198 199 200 196 189 188 189 194 202 204 198 191 184 177 176 180 181 183 186 182 179 176 173 175 172 168 168 165 160 156 153 150 149 149 150 151 153 153 152 153 154 153 150 146 143 142 143 144 142 141 139 137 136 137
237 240 242 241 241 239 231 225 229 232 227 222 219 218 225 229 230 232 232 235 232 224 229 235 232 236 245 252 251 223 208 202 199 198 200 197 190 189 192 194 200 204 202 195 186 182 183 183 181 183 185 183 182 180 176 175 174 170 169 168 164 160 157 155 153 151 150 151 151 151 152 155 157 156 153 150 149 149 150 150 148 146 143 139 136 136
239 242 244 242 239 237 231 225 228 231 226 221 217 216 224 229 230 232 232 235 233 226 233 239 236 239 246 248 254 242 213 204 202 199 198 196 191 190 193 195 200 203 204 200 191 188 190 187 182 182 185 186 185 183 179 176 177 175 173 173 169 166 165 163 161 159 156 155 153 152 154 156 158 157 155 155 155 156 158 158 158 157 154 148 144 143
244 245 244 241 237 234 232 229 230 231 224 221 218 216 223 228 229 231 233 236 234 229 234 243 243 242 247 249 247 247 222 208 204 200 199 198 194 191 193 196 199 202 202 201 197 194 195 192 185 183 186 187 184 183 183 181 180 181 179 177 174 172 171 170 170 169 166 162 159 157 156 156 156 155 155 158 162 165 166 167 166 165 165 161 155 153
246 242 240 239 236 234 234 232 231 230 224 221 221 219 223 229 231 232 234 236 235 232 235 243 249 248 251 252 244 246 243 217 206 201 199 201 199 194 196 196 197 201 201 198 197 198 198 195 190 188 187 187 183 183 186 186 184 184 185 184 181 177 174 174 176 177 175 172 169 166 163 161 159 157 157 161 169 174 175 175 172 169 171 173 167 163
242 237 236 236 236 235 235 234 232 230 225 222 221 220 225 232 235 237 239 239 236 234 237 241 247 252 253 252 247 247 255 238 213 203 198 199 201 198 198 199 198 201 202 198 197 198 196 195 195 193 189 188 187 186 187 189 188 186 187 189 187 183 178 176 177 179 181 179 176 175 174 171 168 166 166 168 173 178 180 180 177 173 172 174 173 173
236 234 237 236 237 236 234 233 231 230 227 224 221 220 226 233 236 242 245 243 239 236 238 240 242 249 254 251 251 250 257 268 229 206 198 197 199 199 199 200 199 200 202 201 198 196 194 196 199 196 192 191 192 191 190 192 191 189 191 193 190 187 184 181 180 182 185 184 181 182 184 181 178 177 175 173 176 178 180 180 181 179 175 172 173 174
232 233 237 238 238 237 234 229 225 227 226 224 222 220 223 229 231 236 242 243 243 238 236 239 240 246 253 251 252 252 255 272 247 208 201 198 198 200 201 202 201 198 200 202 199 195 194 197 201 199 196 195 195 195 194 195 196 195 196 196 193 192 191 188 186 187 189 190 186 186 190 190 187 186 183 182 182 181 182 184 185 184 180 179 179 178
230 231 236 236 237 234 230 227 224 226 226 224 222 220 220 225 229 234 237 240 244 242 237 238 241 243 249 252 253 254 254 262 264 214 205 201 200 203 207 207 203 198 198 201 200 197 196 197 201 202 200 199 198 198 198 198 200 199 200 200 199 199 198 194 192 192 194 196 194 192 195 197 196 195 191 189 189 187 189 191 191 189 187 187 186 187
230 232 235 235 236 233 227 225 226 227 227 225 224 221 220 223 230 234 236 237 242 243 240 239 241 243 246 252 256 255 259 264 272 255 214 208 208 210 213 213 209 202 199 199 199 199 198 199 201 203 204 203 201 201 201 202 203 202 202 202 202 202 203 202 199 197 199 201 200 198 199 202 202 201 198 194 194 196 198 200 199 196 195 193 191 192
228 231 236 234 232 232 227 224 227 230 230 228 227 223 220 222 228 231 231 233 237 238 238 238 241 244 245 251 255 253 257 264 269 273 245 220 216 216 218 219 215 209 203 199 198 199 199 201 201 203 205 205 204 204 204 205 207 206 204 204 204 204 205 206 204 202 203 205 205 203 203 205 206 205 203 201 200 202 205 206 206 202 200 204 207 205
227 230 239 238 230 227 228 227 228 232 234 233 230 227 223 222 226 229 230 232 234 234 233 234 240 245 246 251 253 250 251 256 264 271 263 235 221 218 219 219 217 214 208 203 200 200 200 201 202 203 205 205 206 207 208 209 210 209 207 207 206 206 207 208 207 207 207 208 209 208 207 208 209 208 208 208 207 207 209 209 209 208 209 214 220 220
225 229 238 243 235 227 226 228 229 233 235 234 232 232 229 226 227 230 233 234 234 235 233 231 237 244 248 254 255 252 251 250 255 268 271 245 225 218 217 217 217 216 211 205 203 202 202 203 204 205 206 207 207 208 210 210 212 213 213 211 210 209 208 208 208 210 211 211 212 212 211 210 210 210 211 213 215 214 214 214 213 211 214 219 223 225
225 226 235 242 240 231 226 227 230 236 239 237 235 235 234 233 232 232 237 237 235 238 235 230 234 241 247 255 258 256 255 251 249 260 272 255 229 217 213 212 213 214 210 206 205 205 205 207 208 209 210 210 209 209 210 211 212 214 215 216 216 214 211 210 210 212 213 214 215 215 215 214 212 212 214 216 220 220 220 221 220 218 219 221 224 227
226 225 231 238 241 236 231 228 228 234 241 241 239 234 233 238 238 237 239 233 227 231 233 229 232 239 244 250 256 260 260 257 251 253 267 263 231 212 208 207 207 209 208 207 208 208 209 210 212 214 215 215 215 214 213 213 215 216 216 218 219 219 217 215 214 215 216 218 219 220 219 217 216 215 216 219 222 224 225 226 227 226 226 227 227 230
226 225 228 234 239 239 236 233 231 232 236 241 239 231 230 235 238 241 241 224 209 217 227 228 231 237 242 244 250 259 263 263 257 255 266 263 228 206 203 202 202 204 206 208 209 211 212 213 214 217 219 220 220 219 218 217 218 219 219 220 222 222 222 221 220 220 221 222 223 224 224 222 220 220 220 222 224 225 228 230 232 232 234 234 233 233
230 226 226 231 236 239 238 236 235 234 235 239 240 234 232 233 233 237 238 220 200 207 222 229 234 242 245 242 244 253 265 269 261 260 267 253 220 205 201 199 198 199 203 206 209 211 213 214 215 218 220 222 223 223 223 223 223 224 224 224 225 227 227 227 226 226 226 227 228 230 230 228 226 224 225 227 228 228 230 232 234 236 237 238 239 238
239 232 227 227 231 236 238 236 236 237 237 237 238 237 236 235 231 233 234 220 206 213 224 228 231 242 249 247 244 248 263 272 264 261 264 237 211 203 201 199 197 198 201 204 207 210 212 214 215 217 220 223 225 226 227 227 227 227 227 227 227 228 229 230 231 231 231 231 232 233 236 236 234 231 230 231 232 232 232 234 236 238 239 240 241 242
246 238 231 228 228 232 237 237 236 239 241 241 240 237 235 231 227 229 232 224 212 215 223 224 222 236 251 253 249 249 257 267 264 258 259 231 205 200 199 199 199 201 202 204 205 207 210 212 213 214 216 219 222 224 226 228 228 227 227 228 228 228 229 230 232 234 235 234 234 235 237 239 239 237 235 235 235 235 235 236 238 240 241 241 242 244
251 245 237 231 228 230 235 238 237 237 241 243 243 241 237 229 221 223 229 229 221 217 219 222 222 233 250 257 255 254 256 261 261 254 258 245 207 199 199 201 203 205 205 205 206 206 207 209 210 210 211 212 215 218 221 223 225 225 226 227 228 229 230 231 232 234 235 236 235 235 236 238 240 240 240 238 238 237 238 239 240 242 243 243 245 247
254 251 245 238 233 231 233 237 239 238 240 242 244 244 240 234 227 225 227 231 229 222 218 223 225 227 243 259 261 260 258 262 261 252 264 277 225 204 203 205 206 208 207 206 207 207 207 209 210 209 209 209 211 214 217 220 222 222 223 224 227 229 230 231 231 231 233 234 234 234 234 235 237 240 241 240 239 238 239 240 241 243 244 245 247 248
258 256 251 244 240 236 234 236 238 240 242 242 244 244 242 238 235 233 231 231 232 227 221 221 223 222 229 246 257 258 256 261 262 253 264 301 256 213 208 209 210 211 209 207 207 208 208 209 211 212 211 211 212 214 217 221 222 223 224 224 227 229 230 231 230 229 230 231 231 232 232 233 234 237 240 241 240 239 239 239 241 244 245 246 247 248
263 261 256 249 245 241 239 238 238 240 242 243 243 245 243 240 238 238 237 234 233 232 227 222 219 216 218 228 247 256 251 256 265 257 255 292 282 221 205 209 212 213 210 206 204 207 208 210 212 215 215 216 216 217 220 223 225 228 229 229 229 230 232 233 232 231 232 232 233 233 233 232 232 234 237 239 240 240 240 240 242 244 246 247 248 248
266 267 263 255 249 245 242 242 241 241 241 242 243 244 245 243 240 240 240 240 240 238 233 224 215 213 217 220 232 250 247 244 259 260 253 266 286 246 199 198 203 204 203 201 201 204 207 210 213 215 218 219 220 221 224 227 231 234 236 237 236 234 234 236 236 235 234 235 236 237 238 238 236 236 237 238 239 239 239 240 241 243 246 247 249 250
264 268 269 264 257 250 245 244 244 242 242 242 242 243 244 244 243 242 242 244 245 244 237 225 215 214 218 216 221 239 244 235 243 257 253 252 264 273 220 184 180 185 191 196 201 206 209 213 216 217 219 220 221 224 227 230 234 237 240 243 243 240 238 238 239 239 238 238 238 240 243 244 243 243 243 241 242 241 239 239 241 243 245 248 250 251
262 267 271 271 266 257 248 244 245 245 243 243 243 243 243 244 244 244 245 247 247 245 239 226 216 215 219 217 218 228 236 236 233 233 240 246 247 251 252 192 167 172 182 191 198 203 207 209 213 216 217 218 220 222 226 229 234 238 241 243 246 245 242 239 239 242 243 243 241 240 241 242 242 245 248 246 245 248 247 244 243 245 245 246 247 247
266 270 275 276 271 261 249 243 244 246 246 245 244 243 243 243 243 244 246 249 250 248 241 228 217 215 218 218 220 225 235 246 242 220 214 235 244 239 235 226 184 166 172 184 192 197 199 197 199 206 211 214 218 222 226 230 233 237 240 242 244 246 246 242 239 240 244 246 245 244 243 243 241 241 246 249 246 247 251 250 246 245 243 241 241 240
272 276 280 280 274 262 250 242 241 244 246 248 247 246 244 243 243 243 244 248 252 251 246 233 220 217 218 219 222 228 236 248 248 227 207 217 232 235 230 229 221 196 180 179 181 184 187 187 185 190 199 206 213 218 223 228 230 234 239 241 243 245 246 243 239 238 241 244 245 246 246 245 242 239 244 251 246 239 241 246 246 246 244 242 242 242
275 280 282 281 275 262 248 241 239 240 243 247 249 249 247 246 245 244 244 247 250 251 250 240 228 223 222 222 225 229 234 242 246 241 231 226 228 230 227 222 220 216 208 202 197 193 192 191 189 188 191 198 206 212 217 221 224 229 234 240 244 245 245 244 241 239 241 242 242 243 243 242 241 240 243 249 245 236 234 236 238 241 242 241 241 244
274 281 281 275 269 260 248 242 239 238 240 244 246 247 247 247 246 245 245 246 247 249 250 246 237 230 227 226 228 230 234 238 242 248 250 244 232 224 220 214 210 210 209 208 211 214 213 208 203 201 202 204 208 212 215 217 222 228 234 239 242 245 246 245 243 242 243 243 241 240 240 239 239 238 239 243 242 237 235 233 232 233 235 236 238 240
274 279 276 269 263 257 251 247 243 241 242 242 243 243 244 245 244 244 244 244 244 245 248 249 244 236 232 230 230 232 235 237 241 246 251 250 240 224 214 209 207 205 203 205 211 215 216 217 215 213 215 216 216 218 219 221 225 230 236 241 243 247 252 252 248 245 244 244 243 241 238 236 237 237 238 239 239 237 238 236 233 232 232 232 235 238
271 277 274 266 258 254 251 250 246 243 243 243 243 242 241 241 241 241 241 241 241 242 246 248 247 241 237 235 234 235 236 239 243 246 249 253 247 228 212 202 202 204 205 210 219 224 225 227 228 226 225 223 221 220 218 220 227 234 242 248 247 248 256 259 254 248 244 242 242 240 236 234 235 238 239 241 241 239 239 239 236 236 236 237 238 240
268 273 273 266 256 249 248 248 247 245 244 244 245 244 240 239 238 237 238 238 237 238 242 246 247 244 240 239 237 237 237 241 247 249 251 256 250 230 220 215 201 205 216 225 232 239 239 238 241 242 240 236 234 235 235 236 242 247 250 251 248 248 257 265 262 256 248 240 235 234 234 234 236 239 240 242 242 241 240 237 236 237 239 240 241 243
264 267 268 264 257 250 247 247 247 247 247 247 248 247 244 240 237 234 235 235 234 235 237 241 244 245 243 242 241 239 238 243 249 252 251 253 248 231 228 230 223 219 227 235 243 250 249 249 251 251 251 247 239 237 237 238 242 246 249 252 252 248 252 265 265 258 253 240 230 229 232 235 237 238 239 238 239 239 238 236 238 241 241 241 242 244
259 263 264 263 259 253 249 249 248 249 250 250 250 250 248 244 239 235 234 233 232 232 233 235 238 243 245 246 246 242 240 244 251 256 253 249 247 244 240 239 241 241 239 239 246 251 254 258 257 253 252 251 245 240 240 241 244 250 256 260 259 255 258 273 280 271 255 234 221 219 225 232 235 235 234 232 232 234 236 238 245 250 248 244 243 244
255 260 264 265 262 257 252 249 249 249 250 250 250 251 249 246 242 237 234 233 231 230 230 230 233 238 243 247 248 245 241 246 254 259 257 252 253 258 259 252 249 249 247 245 247 250 256 259 257 252 250 249 247 244 243 245 250 256 259 258 256 258 264 267 264 257 243 226 218 217 223 231 234 228 225 223 222 225 231 237 244 250 250 247 244 242
253 259 264 265 263 259 254 250 248 248 249 250 250 251 249 246 243 238 234 232 231 230 228 227 228 234 239 244 247 246 242 245 254 261 261 260 260 260 259 257 253 248 247 246 245 248 254 255 254 253 251 251 253 252 249 252 257 260 258 256 255 256 257 249 240 236 231 223 222 223 223 225 225 222 223 227 226 225 229 234 238 242 246 247 247 246
251 258 264 265 263 260 255 252 250 248 248 250 251 252 250 246 243 239 233 230 229 230 229 226 225 229 236 240 243 245 242 243 252 260 261 261 261 257 255 255 255 249 241 237 239 246 252 251 252 255 256 256 257 258 258 259 258 256 253 253 253 250 243 237 233 231 227 225 225 225 226 231 235 230 231 236 237 234 235 238 241 244 246 247 249 250
248 255 262 266 265 261 255 253 252 250 251 252 254 255 253 247 242 237 232 228 225 225 228 228 226 227 232 236 238 240 241 241 247 255 259 258 257 252 249 251 254 253 246 239 240 252 261 258 255 257 258 257 254 254 255 253 246 244 247 248 248 243 235 229 227 227 231 234 236 236 238 243 244 239 235 239 243 243 242 243 245 248 251 254 256 257
246 253 261 265 264 261 257 253 253 254 256 258 260 259 255 248 241 235 230 226 223 220 222 226 228 227 227 230 234 237 239 241 244 249 252 253 252 250 248 249 252 255 256 253 253 260 269 270 264 260 260 260 257 256 256 251 239 234 237 241 243 243 238 233 232 237 243 245 244 244 245 246 246 245 243 243 246 248 250 250 251 253 256 259 261 261
245 251 259 263 264 263 259 256 256 259 261 264 266 263 256 246 237 230 225 221 219 217 217 222 228 228 224 224 228 234 237 240 242 244 245 247 248 247 247 249 252 256 259 261 261 262 267 270 266 260 257 257 256 255 253 250 245 237 233 236 241 244 244 242 241 245 249 251 250 250 251 251 252 253 253 252 252 252 253 253 254 256 257 258 259 260
244 249 256 263 267 266 262 260 262 266 267 267 267 265 258 245 233 225 220 217 215 213 213 218 225 227 224 222 224 228 232 235 238 239 240 242 244 245 246 248 251 254 256 257 258 260 264 265 262 257 254 252 251 250 248 247 246 243 239 240 242 245 248 249 249 249 251 252 252 252 252 253 254 255 256 258 258 258 258 258 258 259 259 259 260 261
242 248 255 264 270 268 264 267 270 269 267 266 266 265 257 242 229 222 216 214 213 211 211 214 218 221 222 222 222 223 225 228 232 235 237 239 240 242 244 247 249 251 253 252 252 255 260 261 258 255 251 249 246 245 245 244 244 243 241 240 241 243 245 247 249 251 252 253 253 253 253 254 254 255 257 259 260 261 262 263 263 263 263 264 264 264
240 246 255 265 270 267 265 269 271 267 265 268 271 269 256 237 226 222 217 215 215 212 211 214 217 219 220 221 220 220 220 223 226 229 231 233 235 237 241 246 249 251 251 248 245 249 254 257 255 251 248 246 244 243 243 244 243 243 243 243 243 244 246 248 251 253 255 257 258 258 259 259 259 259 260 260 261 263 264 265 265 266 267 267 268 268